Regional Weather Roundup
Issued by NWS

Home | Current Version | Previous Version | Graphics & Text | Print | Product List | Glossary On
Versions: 1 2 3 4 5 6 7 8 9 10 11 12 13 14 15 16 17 18 19 20 21 22 23 24 25 26 27 28
000
ASUS45 KSLC 230410
RWRUT

UTAH REGIONAL WEATHER ROUNDUP
NATIONAL WEATHER SERVICE SALT LAKE CITY UT
1000 PM MDT WED OCT 22 2014

UTZ001>011-023>025-230500-

NORTHERN UTAH

CITY           SKY/WX    TMP DP  RH WIND       PRES   REMARKS
BRIGHAM CITY   CLEAR     45  32  61 N5        30.18S
HILL AFB       CLEAR     49  25  40 E9        30.18S
LOGAN          CLEAR     39  29  67 CALM      30.18S
OGDEN          CLEAR     47  30  51 S9        30.16F
PROVO AIRPORT  CLEAR     46  36  66 E3        30.19S
SALT LAKE CITY MOCLDY    49  34  56 S6        30.17S
VERNAL         CLEAR     47  36  65 NW3       30.19S
WENDOVER       CLEAR     48  30  49 NE5       30.16S
HEBER CITY     CLEAR     37  28  70 CALM      30.22R
WEST JORDAN    CLEAR     48  36  61 SW5       30.18F

$$

UTZ012>022-026-027-230500-

SOUTHERN/CENTRAL UTAH

CITY           SKY/WX    TMP DP  RH WIND       PRES   REMARKS
BLANDING       CLEAR     49  32  51 N7        30.28R
BRYCE CANYON   CLEAR     37  26  64 MISG      30.30S
CEDAR CITY     CLEAR     52  32  46 SE6       30.19F
DELTA          CLEAR     48  31  51 E3        30.17S
HANKSVILLE       N/A     59  34  38 N3        30.15R
MILFORD        CLEAR     47  28  47 CALM      30.18R
MOAB/CYNLANDS  CLEAR     51  32  48 CALM      30.13R
PRICE          CLEAR     50  28  42 N12       30.20S
ST GEORGE      CLEAR     63  30  29 CALM      30.09R
KANAB            N/A     48  30  49 NW3       30.22R

$$

REGIONAL REPORTS     COLORADO/ARIZONA

CITY           SKY/WX    TMP DP  RH WIND       PRES   REMARKS
CRAIG, CO      CLEAR     37  32  82 CALM      30.25R
GRAND JUNCTION CLEAR     53  39  59 E8        30.17R
RIFLE          CLEAR     46  41  82 SW5       30.23R
MONTROSE       CLEAR     49  39  68 SE9       30.24R
CORTEZ         CLEAR     45  35  68 NE3       30.23R
PAGE, AZ       CLEAR     66  35  31 SW5       30.13R
GRAND CANYON   CLEAR     39  27  62 CALM      30.27R
KINGMAN        MOCLDY    58  40  51 SE6       30.10R
FLAGSTAFF      CLEAR     42  32  67 CALM      30.30R

$$

REGIONAL REPORTS    NEVADA/IDAHO/WYOMING

CITY           SKY/WX    TMP DP  RH WIND       PRES   REMARKS
LAS VEGAS, NV  MOCLDY    73  31  21 W5        29.98S
ELY            CLEAR     50  19  29 S15       30.21R
ELKO           PTCLDY    50  21  32 E6        30.10S
POCATELLO, ID  CLEAR     50  26  39 E3        30.14S
BURLEY         PTCLDY    44  31  60 SE3       30.09R
EVANSTON, WY   CLEAR     42  21  43 S7        30.25S
ROCK SPRINGS   PTCLDY    40  22  48 S7        30.24S
KEMMERER       PTCLDY    36  18  48 W6        30.24F WCI  31

$$



USA.gov is the U.S. government's official web portal to all federal, state and local government web resources and services.